Simultaneous Nadir Overpasses (SNOs) Predictions

Prediction of SNOs between GOES-14 and NPP Satellite Orbit:

Table of predicted SNOs for the next 14.0 days since TLE Epoch: 6/29/2020
Index Date Time (GOES-14) GOES-14 Lat,Lon NPP Lat,Lon Distance(km) Time Diff (sec)
1 06/29/2020 08:07:25 -0.12,-104.22 -0.96,-100.44 430.15 80
2 06/30/2020 20:26:43 0.16,-104.42 -0.17,-105.76 153.42 80
3 07/01/2020 20:10:40 0.15,-104.42 0.88,-101.24 363.60 80
4 07/03/2020 08:29:48 -0.19,-104.23 0.33,-106.50 258.81 80
5 07/04/2020 08:13:44 -0.17,-104.24 -0.65,-101.97 258.23 80
6 07/05/2020 20:33:03 0.21,-104.44 -0.41,-107.30 325.31 80
7 07/06/2020 20:16:58 0.19,-104.45 0.57,-102.76 191.91 80
8 07/08/2020 08:36:07 -0.23,-104.26 0.63,-108.03 429.96 80
9 07/09/2020 08:20:02 -0.21,-104.27 -0.36,-103.49 87.50 80
10 07/10/2020 20:39:22 0.25,-104.48 -0.71,-108.83 495.48 80
11 07/11/2020 20:23:17 0.23,-104.49 0.28,-104.29 22.22 80
